Weather History for Luverne, MN

Change the Weather History Date:

Monday, November 11, 2013

  Actual Average (KFSD) Record (KFSD)
Temperature  
Mean Temperature 22 °F 35 °F  
Max Temperature 37 °F 45 °F 70 °F (2005)
Min Temperature 6 °F 25 °F -5 °F (1986)
Degree Days  
Heating Degree Days 44 30  
Month to date heating degree days 296  
Since 1 July heating degree days 1036  
Cooling Degree Days 0 0  
Month to date cooling degree days 0  
Year to date cooling degree days 690  
Moisture  
Dew Point 13 °F    
Average Humidity 71    
Maximum Humidity 93    
Minimum Humidity 58    
Precipitation  
Precipitation 0.00 in 0.05 in 1.79 in (1915)
Month to date precipitation 0.50  
Year to date precipitation 24.83  
Snow  
Snow 0.00 in 0.20 in 4.00 in (1982)
Month to date snowfall 1.8  
Since 1 July snowfall 3.1  
Since 1 September snowfall 3.1  
Snow Depth -    
Sea Level Pressure  
Sea Level Pressure 30.48 in    
Wind  
Wind Speed 12 mph (North)    
Max Wind Speed 22 mph    
Max Gust Speed 30 mph    
Visibility 9 miles    
Events Snow    
T = Trace of Precipitation, MM = Missing Value Source: NWS Daily Summary

Daily Weather History Graph

Daily Weather History Graph

Search for Another Location

Airport:

Trip Planner

Search our weather history database for the weather conditions in past years. The results will help you decide how hot, cold, wet, or windy it might be!

Date:

Astronomy

Nov. 11, 2013 Rise Set
Actual Time 7:14 AM CST 5:03 PM CST
Civil Twilight 6:43 AM CST 5:33 PM CST
Nautical Twilight 6:08 AM CST 6:08 PM CST
Astronomical Twilight 5:35 AM CST 6:42 PM CST
Moon 1:54 PM CST (11/11) 12:49 AM CST (11/11)
Length of Visible Light 10h 50m
Length of Day
9h 49m
Waxing Gibbous, 66% of the Moon is Illuminated
Nov 11
Waxing Gibbous
Nov 17
Full
Nov 25
Last Quarter
Dec 2
New
Dec 9
First Quarter

Hourly Weather History & Observations

Time (CST) Temp. Windchill Dew Point Humidity Pressure Visibility Wind Dir Wind Speed Gust Speed Precip Events Conditions
12:13 AM 33.8 °F - 32.0 °F 93% 30.11 in 10.0 mi Calm Calm - N/A   Mostly Cloudy
12:33 AM 35.6 °F 29.9 °F 32.0 °F 87% 30.13 in 10.0 mi NNE 6.9 mph - N/A   Mostly Cloudy
12:53 AM 37.4 °F 30.8 °F 32.0 °F 81% 30.15 in 10.0 mi NNE 9.2 mph - N/A   Mostly Cloudy
1:13 AM 37.4 °F 28.2 °F 32.0 °F 81% 30.15 in 10.0 mi NE 16.1 mph 23.0 mph N/A   Mostly Cloudy
1:33 AM 35.6 °F 26.6 °F 30.2 °F 81% 30.15 in 10.0 mi NNE 13.8 mph 21.9 mph N/A   Scattered Clouds
1:53 AM 33.8 °F 24.8 °F 30.2 °F 87% 30.17 in 10.0 mi NNE 12.7 mph 20.7 mph N/A   Scattered Clouds
2:13 AM 32.0 °F 21.2 °F 28.4 °F 87% 30.19 in 10.0 mi NNE 16.1 mph 23.0 mph N/A   Mostly Cloudy
2:33 AM 32.0 °F 20.5 °F 26.6 °F 80% 30.20 in 10.0 mi NNE 18.4 mph 25.3 mph N/A   Mostly Cloudy
2:53 AM 30.2 °F 18.1 °F 24.8 °F 80% 30.19 in 10.0 mi NNE 18.4 mph 24.2 mph N/A   Mostly Cloudy
3:13 AM 30.2 °F 18.1 °F 21.2 °F 69% 30.23 in 10.0 mi North 18.4 mph 25.3 mph N/A   Scattered Clouds
3:33 AM 28.4 °F 16.6 °F 19.4 °F 69% 30.20 in 10.0 mi NNE 16.1 mph 25.3 mph N/A   Mostly Cloudy
3:53 AM 28.4 °F 15.8 °F 17.6 °F 64% 30.22 in 7.0 mi NNE 18.4 mph 28.8 mph N/A   Overcast
4:13 AM 26.6 °F 13.1 °F 15.8 °F 64% 30.24 in 10.0 mi NNE 19.6 mph 27.6 mph N/A   Overcast
4:33 AM 26.6 °F 13.8 °F 15.8 °F 64% 30.27 in 10.0 mi NNE 17.3 mph 26.5 mph N/A   Scattered Clouds
4:53 AM 24.8 °F 11.5 °F 15.8 °F 69% 30.28 in 10.0 mi NNE 17.3 mph 29.9 mph N/A   Scattered Clouds
5:13 AM 24.8 °F 10.0 °F 15.8 °F 69% 30.29 in 10.0 mi NNE 21.9 mph 28.8 mph N/A   Mostly Cloudy
5:33 AM 23.0 °F 8.7 °F 15.8 °F 74% 30.29 in 7.0 mi NNE 18.4 mph 26.5 mph N/A   Mostly Cloudy
5:53 AM 23.0 °F 9.6 °F 17.6 °F 80% 30.31 in 5.0 mi North 16.1 mph 25.3 mph N/A Snow Light Snow
6:13 AM 21.2 °F 6.8 °F 17.6 °F 86% 30.32 in 3.0 mi North 17.3 mph 27.6 mph N/A Snow Light Snow
6:33 AM 21.2 °F 7.3 °F 17.6 °F 86% 30.35 in 5.0 mi North 16.1 mph - N/A Snow Light Snow
6:53 AM 21.2 °F 8.9 °F 17.6 °F 86% 30.36 in 1.5 mi North 12.7 mph 24.2 mph N/A Snow Light Snow
7:13 AM 19.4 °F 5.0 °F 15.8 °F 86% 30.38 in 0.8 mi North 16.1 mph 23.0 mph N/A Snow Snow
7:33 AM 19.4 °F 7.9 °F 15.8 °F 86% 30.38 in 1.0 mi North 10.4 mph 17.3 mph N/A Snow Light Snow
7:53 AM 19.4 °F 7.2 °F 14.0 °F 80% 30.39 in - NNE 11.5 mph 24.2 mph N/A   Unknown
8:13 AM 19.4 °F 6.6 °F 14.0 °F 80% 30.41 in 10.0 mi North 12.7 mph 21.9 mph N/A   Mostly Cloudy
8:34 AM 21.2 °F 7.8 °F 12.2 °F 68% 30.42 in 10.0 mi North 15.0 mph 20.7 mph N/A   Overcast
8:53 AM 21.2 °F 6.4 °F 10.4 °F 63% 30.43 in 10.0 mi NNE 18.4 mph 25.3 mph N/A   Overcast
9:13 AM 21.2 °F 7.8 °F 12.2 °F 68% 30.44 in 10.0 mi North 15.0 mph 20.7 mph N/A   Overcast
9:33 AM 21.2 °F 8.3 °F 12.2 °F 68% 30.45 in 7.0 mi North 13.8 mph 24.2 mph N/A   Overcast
9:53 AM 21.2 °F 7.3 °F 12.2 °F 68% 30.46 in 10.0 mi North 16.1 mph 24.2 mph N/A   Overcast
10:13 AM 21.2 °F 8.9 °F 10.4 °F 63% 30.48 in 10.0 mi North 12.7 mph 26.5 mph N/A   Overcast
10:33 AM 21.2 °F 6.8 °F 10.4 °F 63% 30.48 in 10.0 mi North 17.3 mph 23.0 mph N/A   Mostly Cloudy
10:53 AM 21.2 °F 7.8 °F 10.4 °F 63% 30.49 in 10.0 mi North 15.0 mph 21.9 mph N/A   Clear
11:13 AM 21.2 °F 10.1 °F 10.4 °F 63% 30.50 in 10.0 mi North 10.4 mph 19.6 mph N/A   Mostly Cloudy
11:33 AM 21.2 °F 6.8 °F 10.4 °F 63% 30.50 in 10.0 mi North 17.3 mph 21.9 mph N/A   Overcast
11:54 AM 21.2 °F 7.3 °F 10.4 °F 63% 30.51 in 10.0 mi North 16.1 mph 20.7 mph N/A   Scattered Clouds
12:13 PM 21.2 °F 8.3 °F 10.4 °F 63% 30.51 in 10.0 mi North 13.8 mph 19.6 mph N/A   Clear
12:33 PM 23.0 °F 11.1 °F 12.2 °F 63% 30.52 in 10.0 mi North 12.7 mph 20.7 mph N/A   Clear
12:54 PM 23.0 °F 9.6 °F 12.2 °F 63% 30.52 in 10.0 mi North 16.1 mph 19.6 mph N/A   Clear
1:13 PM 23.0 °F 10.1 °F 10.4 °F 59% 30.52 in 10.0 mi North 15.0 mph 20.7 mph N/A   Clear
1:33 PM 23.0 °F 11.1 °F 10.4 °F 59% 30.54 in 10.0 mi North 12.7 mph 18.4 mph N/A   Clear
1:54 PM 23.0 °F 9.6 °F 10.4 °F 59% 30.54 in 10.0 mi North 16.1 mph 21.9 mph N/A   Clear
2:13 PM 23.0 °F 9.2 °F 10.4 °F 59% 30.54 in 10.0 mi North 17.3 mph 20.7 mph N/A   Clear
2:34 PM 23.0 °F 9.6 °F 10.4 °F 59% 30.55 in 10.0 mi North 16.1 mph 19.6 mph N/A   Clear
2:53 PM 23.0 °F 9.2 °F 10.4 °F 59% 30.55 in 10.0 mi North 17.3 mph - N/A   Clear
3:13 PM 23.0 °F 10.6 °F 10.4 °F 59% 30.57 in 10.0 mi North 13.8 mph 21.9 mph N/A   Clear
3:33 PM 23.0 °F 11.7 °F 10.4 °F 59% 30.57 in 10.0 mi North 11.5 mph 17.3 mph N/A   Clear
3:53 PM 23.0 °F 10.1 °F 10.4 °F 59% 30.57 in 10.0 mi North 15.0 mph 18.4 mph N/A   Clear
4:13 PM 23.0 °F 13.1 °F 10.4 °F 59% 30.58 in 10.0 mi North 9.2 mph - N/A   Clear
4:34 PM 23.0 °F 10.6 °F 10.4 °F 59% 30.59 in 10.0 mi North 13.8 mph - N/A   Clear
4:53 PM 21.2 °F 10.9 °F 8.6 °F 58% 30.60 in 10.0 mi North 9.2 mph - N/A   Clear
5:13 PM 21.2 °F 10.9 °F 10.4 °F 63% 30.61 in 10.0 mi North 9.2 mph - N/A   Clear
5:34 PM 19.4 °F 8.6 °F 8.6 °F 63% 30.62 in 10.0 mi North 9.2 mph - N/A   Clear
5:53 PM 19.4 °F 8.6 °F 8.6 °F 63% 30.63 in 10.0 mi North 9.2 mph - N/A   Clear
6:13 PM 17.6 °F 9.3 °F 8.6 °F 68% 30.63 in 10.0 mi North 5.8 mph - N/A   Clear
6:34 PM 17.6 °F 7.3 °F 8.6 °F 68% 30.65 in 10.0 mi North 8.1 mph - N/A   Clear
6:53 PM 17.6 °F 6.4 °F 8.6 °F 68% 30.66 in 10.0 mi North 9.2 mph - N/A   Clear
7:13 PM 17.6 °F 8.2 °F 8.6 °F 68% 30.67 in 10.0 mi North 6.9 mph - N/A   Clear
7:34 PM 17.6 °F 8.2 °F 8.6 °F 68% 30.68 in 10.0 mi North 6.9 mph - N/A   Clear
7:53 PM 15.8 °F 7.2 °F 8.6 °F 73% 30.69 in 10.0 mi North 5.8 mph - N/A   Clear
8:13 PM 15.8 °F 6.1 °F 8.6 °F 73% 30.70 in 10.0 mi North 6.9 mph - N/A   Clear
8:34 PM 15.8 °F 6.1 °F 8.6 °F 73% 30.70 in 10.0 mi North 6.9 mph - N/A   Clear
8:53 PM 15.8 °F 5.1 °F 8.6 °F 73% 30.71 in 10.0 mi North 8.1 mph - N/A   Clear
9:13 PM 14.0 °F 2.9 °F 8.6 °F 79% 30.72 in 10.0 mi North 8.1 mph - N/A   Clear
9:32 PM 14.0 °F 2.9 °F 8.6 °F 79% 30.72 in 10.0 mi North 8.1 mph - N/A   Clear
9:53 PM 14.0 °F 5.1 °F 8.6 °F 79% 30.72 in 10.0 mi North 5.8 mph - N/A   Clear
10:13 PM 12.2 °F 2.9 °F 6.8 °F 79% 30.73 in 10.0 mi NNW 5.8 mph - N/A   Clear
10:33 PM 12.2 °F 4.3 °F 5.0 °F 73% 30.75 in 10.0 mi NNW 4.6 mph - N/A   Clear
10:53 PM 10.4 °F -0.4 °F 5.0 °F 79% 30.75 in 10.0 mi NNW 6.9 mph - N/A   Clear
11:13 PM 10.4 °F 2.2 °F 5.0 °F 79% 30.75 in 10.0 mi NNW 4.6 mph - N/A   Clear
11:33 PM 6.8 °F -4.8 °F 1.4 °F 79% 30.75 in 10.0 mi WNW 6.9 mph - N/A   Clear
11:53 PM 6.8 °F -4.8 °F 1.4 °F 79% 30.76 in 10.0 mi NW 6.9 mph - N/A   Clear